Welcome to the New NWS' Forecast!
Most changes are behind the scenes, but click here for differences you might notice.
Latest weather observations around

Hartford, Hartford-Brainard Airport (KHFD)

Using English Units (Switch to International System of Units)
Date/ Time (EDT) Wind (mph) Vis. (mi) Weather Sky Cond. Temp (°F) Rel. Humidity Wind Chill (°F) Heat Index (°F) Pressure Precip. (in)
Air Dwpt 6 hour Altimeter (inHg) Sea level (inHg) 1 hr 3 hr 6 hr
Max Min
Sep 23 09:53 N 13 10 Mostly Clear FEW022 73 56     55%   73 30.04 30.04      
Sep 23 08:53 N 14 10 Clear CLR 71 53     53%   70 30.04 30.04      
Sep 23 07:53 N 9 10 Clear CLR 68 52     57%     30.01 30      
Sep 23 06:53 N 6 10 Clear CLR 67 51     57%     30 30      
Sep 23 05:53 N 8 10 Partly Cloudy SCT046 SCT060 68 51     55%     30 29.99      
Sep 23 04:53 N 11 10 Cloudy OVC041 69 52     54%     29.98 29.98      
Sep 23 03:53 N 10 10 Cloudy OVC036 69 52     54%     29.98 29.98      
Sep 23 02:53 NNE 10 10 Mostly Cloudy SCT027 BKN034 69 53     57%     29.99 29.99      
Sep 23 01:53 N 13 10 Cloudy OVC026 69 53     57%     29.99 29.98      
Sep 23 01:28 N 14 10 Mostly Cloudy BKN027 69 53     57%     29.98        
Sep 23 01:05 N 9 10 Mostly Cloudy BKN030 69 53     57%     29.99        
Sep 23 00:53 N 11 10 Cloudy OVC029 70 53     55%     29.99 29.98      
Sep 23 00:34 N 13 10 Cloudy OVC029 69 53     57%     29.99        
Sep 22 23:53 N 13 10 Cloudy OVC031 69 54     59%     29.99 29.99      
Sep 22 22:53 N 15 10 Cloudy OVC026 69 55     61%     30 30      
Sep 22 21:53 NNE 10 10 Cloudy OVC028 70 56     61%     29.99 29.99      
Sep 22 21:21 N 10 10 Cloudy OVC028 70 57     63%     29.99        
Sep 22 20:53 NNE 9 10 Cloudy OVC034 70 57     63%     29.99 29.99      
Sep 22 19:53 NNE 15 10 Cloudy OVC030 71 57     61%   71 29.98 29.98      
Sep 22 18:53   10 Cloudy BKN036 OVC049 73 58     59%   73 29.96 29.96      
Sep 22 17:53 NNE 11 10 Cloudy OVC038 75 58     55%   75 29.96 29.96      
Sep 22 16:53 N 16 10 Cloudy BKN038 OVC050 76 56     50%   76 29.95 29.95      
Sep 22 15:53 N 18 10 Mostly Cloudy BKN039 BKN065 78 57     48%   78 29.95 29.95      
Sep 22 14:53 N 13 10 Mostly Clear FEW036 76 55     48%   75 29.96 29.96      
Sep 22 13:53 N 15 10 Mostly Clear FEW035 76 55     48%   75 29.97 29.97      
Sep 22 12:53 N 16 10 Cloudy OVC034 75 54     48%   74 29.99 29.99      
Sep 22 11:53   10 Mostly Cloudy BKN033 73 53     50%   72 30 29.99      
Sep 22 10:53 N 16 10 Mostly Cloudy BKN030 71 51     49%   70 30 30      
Sep 22 09:53 N 20 10 Partly Cloudy and Windy SCT049 69 50     51%     30 30      
Sep 22 08:53 N 16 9 Clear CLR 67 50     55%     30.01 30.01      
Sep 22 07:53   10 Clear   65 49     56%     30.01 30.01      
Sep 22 06:53 N 15 10 Clear CLR 64 49     58%     30 30      
Sep 22 05:53 N 13 10 Clear CLR 64 49     58%     30 29.99      
Sep 22 04:53 N 14 10 Clear CLR 65 49     56%     29.99 29.99      
Sep 22 03:53 N 13 10 Clear CLR 65 49     56%     29.99 29.99      
Sep 22 02:53 N 13 10 Partly Cloudy SCT060 66 49     54%     29.99 29.99      
Sep 22 01:53 N 11 10 Clear CLR 67 49     52%     30.02 30.02      
Sep 22 00:53 N 10 10 Clear CLR 68 50     53%     30.02 30.02      
Sep 21 23:53 N 13 10 Clear CLR 68 50     53%     30.02 30.01      
Sep 21 22:53 N 9 10 Clear CLR 68 52     57%     30.03 30.03      
Sep 21 21:53 NNE 9 10 Clear CLR 68 53     59%     30.04 30.03      
Sep 21 20:53 N 10 10 Clear CLR 69 54     59%     30.03 30.03      
Sep 21 19:53 N 10 10 Clear CLR 70 56     61%     30.02 30.01      
Sep 21 18:53 N 6 10 Clear CLR 71 56     59%   71 30.01 30.01      
Sep 21 17:53 NNE 9 10 Clear CLR 72 55     55%   71 30 30      
Sep 21 16:53 NNE 13 10 Clear CLR 73 54     51%   72 30 29.99      
Sep 21 15:53 NNE 14 10 Clear CLR 75 59     57%   75 29.99 29.99      
Sep 21 14:53 NNE 14 10 Clear CLR 75 57     54%   75 29.99 29.98      
Sep 21 13:53   10 Clear CLR 75 59     57%   75 29.99 29.98      
Sep 21 12:53 N 15 10 Clear CLR 75 63     66%   75 29.99 29.99      
Sep 21 11:53 N 13 10 Mostly Clear FEW032 75 63     66%   75 30.01 30.01      
Sep 21 10:53 N 15 10 Mostly Clear FEW029 73 63     71%   73 30.01 30.01      
Sep 21 09:53 N 16 10 Mostly Clear FEW028 72 63     73%   72 30.01 30.01      
Sep 21 08:53 N 14 10 Mostly Clear FEW031 72 62     71%   72 29.99 29.99      
Sep 21 07:53 N 15 10 Cloudy OVC032 72 62     71%   72 29.98 29.98      
Sep 21 06:53 N 11 10 Mostly Clear FEW030 71 62     73%   71 29.96 29.96      
Sep 21 05:53 N 10 10 Mostly Clear FEW033 72 63     73%   72 29.94 29.94      
Sep 21 04:53 N 14 10 Mostly Clear FEW046 72 63     73%   72 29.92 29.92      
Sep 21 03:53 N 14 10 Mostly Cloudy SCT033 BKN047 73 64     73%   73 29.92 29.92      
Sep 21 02:53 N 9 10 Partly Cloudy SCT043 73 64     73%   73 29.91 29.91      
Sep 21 01:53 N 10 10 Clear CLR 73 63     71%   73 29.91 29.91      
Sep 21 00:53 N 9 10 Mostly Clear FEW042 73 64     73%   73 29.91 29.91      
Sep 20 23:53 N 8 10 Mostly Clear FEW040 73 64     73%   73 29.91 29.91      
Sep 20 22:53 N 5 10 Clear CLR 72 65     79%   73 29.9 29.9      
Sep 20 21:53 N 8 10 Mostly Cloudy BKN041 73 65     76%   74 29.9 29.9      
Sep 20 20:53 N 14 10 Cloudy FEW027 BKN045 OVC055 74 65     74%   74 29.91 29.91      
Sep 20 20:45 N 14 10 Cloudy SCT028 SCT038 OVC045 74 65     74%   74 29.91        
Sep 20 20:32 NNE 11 10 Cloudy BKN027 OVC035 74 65     74%   74 29.9        
Sep 20 19:53 N 9 10 Cloudy OVC032 75 65     71%   76 29.9 29.9      
Sep 20 18:53 N 10 10 Cloudy OVC050 75 65     71%   76 29.88 29.88      
Sep 20 17:53 N 13 10 Cloudy BKN034 OVC046 76 65     69%   76 29.88 29.87      
Sep 20 16:53 N 14 10 Cloudy OVC033 76 65     69%   76 29.87 29.86      
Sep 20 15:53 N 16 10 Cloudy OVC031 76 66     71%   77 29.86 29.86      
Sep 20 14:53 N 15 10 Cloudy OVC030 76 66     71%   77 29.85 29.85      
Sep 20 14:20 N 14 10 Cloudy OVC030 76 66     71%   77 29.85        
Sep 20 13:53 N 15 10 Cloudy OVC026 75 66     74%   76 29.86 29.86      
Sep 20 13:42 N 15 10 Cloudy BKN026 OVC033 74 66     76%   75 29.86        
Sep 20 13:25 N 16 10 Cloudy FEW023 BKN030 OVC038 74 66     76%   75 29.86        
Sep 20 12:53 N 13 10 Cloudy OVC023 74 66     76%   75 29.87 29.87      
Sep 20 11:53 N 15 10 Cloudy OVC024 73 66     79%   74 29.87 29.87      
Sep 20 10:53 N 13 10 Cloudy OVC025 74 67     79%   75 29.87 29.87      
Jun 11 10:53 5 10 Clear CLR 84 63     49%   85 30.01 30.01      
Jun 10 18:53   10 Clear   79 57     47%   79 29.93 29.93      
Jun 10 12:51 SW 8 10 Mostly Cloudy BKN075 82 55     40%   82 29.95        
Jun 10 08:53 E 3 10 Clear CLR 71 56     59%   71 29.97 29.97      
Jun 09 22:53 S 3 10 Clear CLR 61 55     81%     29.84 29.83      
Jun 08 01:53 Calm 10 Clear CLR 53 50     89%     30.02 30.02      
Jun 07 09:53 NNE 10 10 Cloudy OVC060 59 49     69%     29.99 29.98      
Jun 07 08:53 N 8 10 Cloudy SCT055 BKN070 OVC080 57 50     77%     29.98 29.98      
Jun 06 14:53 N 9 6 Light Rain and Fog/Mist BKN014 OVC019 51 49     92%     29.82 29.82 0    
Notice The following observation data may not be complete
Jun 06 08:11   2.5 Light Rain and Fog/Mist BKN007 OVC014          %         0    
Jun 06 07:49 N 10 2.5 Light Rain and Fog/Mist OVC012 52 48     87%     29.79   0